Time,TemperatureF,DewpointF,PressureIn,WindDirection,WindDirectionDegrees,WindSpeedMPH,WindSpeedGustMPH,Humidity,HourlyPrecipIn,Conditions,Clouds,dailyrainin,SoftwareType,DateUTC
2013-04-22 00:03:00,27.0,19.0,30.37,SW,224,0.0,-999.0,72,-99.99,,,-99.99,,2013-04-22 04:03:00,
2013-04-22 00:12:00,27.0,19.0,30.37,SW,224,0.0,-999.0,72,-99.99,,,-99.99,,2013-04-22 04:12:00,
2013-04-22 00:23:00,27.0,19.0,30.38,SW,224,0.0,-999.0,72,-99.99,,,-99.99,,2013-04-22 04:23:00,
2013-04-22 00:33:00,26.0,18.0,30.38,SW,224,0.0,-999.0,71,-99.99,,,-99.99,,2013-04-22 04:33:00,
2013-04-22 00:43:00,26.0,18.0,30.38,SW,224,0.0,-999.0,71,-99.99,,,-99.99,,2013-04-22 04:43:00,
2013-04-22 00:53:00,27.0,19.0,30.35,SW,224,0.0,-999.0,71,-99.99,,,-99.99,,2013-04-22 04:53:00,
2013-04-22 01:03:00,26.0,18.0,30.38,SW,224,0.0,-999.0,72,-99.99,,,-99.99,,2013-04-22 05:03:00,
2013-04-22 01:12:00,26.0,18.0,30.38,SW,224,0.0,-999.0,72,-99.99,,,-99.99,,2013-04-22 05:12:00,
2013-04-22 01:22:00,26.0,19.0,30.36,SW,224,0.0,-999.0,74,-99.99,,,-99.99,,2013-04-22 05:22:00,
2013-04-22 01:32:00,25.0,18.0,30.39,SW,224,0.0,-999.0,74,-99.99,,,-99.99,,2013-04-22 05:32:00,
2013-04-22 01:42:00,25.0,18.0,30.39,SW,224,0.0,-999.0,74,-99.99,,,-99.99,,2013-04-22 05:42:00,
2013-04-22 01:52:00,25.0,18.0,30.36,SW,224,0.0,-999.0,75,-99.99,,,-99.99,,2013-04-22 05:52:00,
2013-04-22 02:02:00,25.0,18.0,30.39,SW,224,0.0,-999.0,75,-99.99,,,-99.99,,2013-04-22 06:02:00,
2013-04-22 02:12:00,25.0,18.0,30.39,SW,224,0.0,-999.0,75,-99.99,,,-99.99,,2013-04-22 06:12:00,
2013-04-22 02:21:00,25.0,19.0,30.35,SW,224,0.0,-999.0,77,-99.99,,,-99.99,,2013-04-22 06:21:00,
2013-04-22 02:32:00,24.0,18.0,30.39,SW,224,0.0,-999.0,76,-99.99,,,-99.99,,2013-04-22 06:32:00,
2013-04-22 02:42:00,24.0,18.0,30.39,SW,224,0.0,-999.0,76,-99.99,,,-99.99,,2013-04-22 06:42:00,
2013-04-22 02:52:00,24.0,18.0,30.35,SW,224,0.0,-999.0,78,-99.99,,,-99.99,,2013-04-22 06:52:00,
2013-04-22 03:01:00,24.0,18.0,30.39,SW,224,0.0,-999.0,79,-99.99,,,-99.99,,2013-04-22 07:01:00,
2013-04-22 03:12:00,24.0,18.0,30.39,SW,224,0.0,-999.0,79,-99.99,,,-99.99,,2013-04-22 07:12:00,
2013-04-22 03:21:00,24.0,18.0,30.35,SW,224,0.0,-999.0,79,-99.99,,,-99.99,,2013-04-22 07:21:00,
2013-04-22 03:32:00,23.0,17.0,30.39,SW,224,0.0,-999.0,79,-99.99,,,-99.99,,2013-04-22 07:32:00,
2013-04-22 03:42:00,23.0,17.0,30.39,SW,224,0.0,-999.0,79,-99.99,,,-99.99,,2013-04-22 07:42:00,
2013-04-22 03:52:00,23.0,18.0,30.36,SW,224,0.0,-999.0,82,-99.99,,,-99.99,,2013-04-22 07:52:00,
2013-04-22 04:02:00,23.0,18.0,30.39,SW,224,0.0,-999.0,82,-99.99,,,-99.99,,2013-04-22 08:02:00,
2013-04-22 04:11:00,23.0,18.0,30.39,SW,224,0.0,-999.0,82,-99.99,,,-99.99,,2013-04-22 08:11:00,
2013-04-22 04:22:00,23.0,19.0,30.36,SW,224,0.0,-999.0,83,-99.99,,,-99.99,,2013-04-22 08:22:00,
2013-04-22 04:32:00,23.0,19.0,30.40,SSE,162,0.0,-999.0,84,-99.99,,,-99.99,,2013-04-22 08:32:00,
2013-04-22 04:42:00,23.0,19.0,30.40,SSE,162,0.0,-999.0,84,-99.99,,,-99.99,,2013-04-22 08:42:00,
2013-04-22 04:53:00,23.0,19.0,30.37,SSE,162,0.0,-999.0,83,-99.99,,,-99.99,,2013-04-22 08:53:00,
2013-04-22 05:01:00,22.0,18.0,30.40,SSE,162,0.0,-999.0,84,-99.99,,,-99.99,,2013-04-22 09:01:00,
2013-04-22 05:11:00,22.0,18.0,30.40,SSE,162,0.0,-999.0,84,-99.99,,,-99.99,,2013-04-22 09:11:00,
2013-04-22 05:21:00,23.0,19.0,30.37,SSE,162,0.0,-999.0,85,-99.99,,,-99.99,,2013-04-22 09:21:00,
2013-04-22 05:33:00,22.0,18.0,30.41,SSE,162,0.0,-999.0,85,-99.99,,,-99.99,,2013-04-22 09:33:00,
2013-04-22 05:42:00,22.0,18.0,30.41,SSE,162,0.0,-999.0,85,-99.99,,,-99.99,,2013-04-22 09:42:00,
2013-04-22 05:53:00,22.0,18.0,30.41,SSE,162,0.0,-999.0,86,-99.99,,,-99.99,,2013-04-22 09:53:00,
2013-04-22 06:03:00,22.0,18.0,30.41,SSE,162,0.0,-999.0,86,-99.99,,,-99.99,,2013-04-22 10:03:00,
2013-04-22 06:12:00,22.0,18.0,30.41,SSE,162,0.0,-999.0,86,-99.99,,,-99.99,,2013-04-22 10:12:00,
2013-04-22 06:23:00,22.0,19.0,30.39,SSE,162,0.0,-999.0,87,-99.99,,,-99.99,,2013-04-22 10:23:00,
2013-04-22 06:32:00,22.0,19.0,30.42,SSE,162,0.0,-999.0,87,-99.99,,,-99.99,,2013-04-22 10:32:00,
2013-04-22 06:42:00,22.0,19.0,30.42,SSE,162,0.0,-999.0,87,-99.99,,,-99.99,,2013-04-22 10:42:00,
2013-04-22 06:53:00,23.0,20.0,30.40,SSE,162,0.0,-999.0,88,-99.99,,,-99.99,,2013-04-22 10:53:00,
2013-04-22 07:02:00,23.0,20.0,30.44,SSE,162,0.0,-999.0,89,-99.99,,,-99.99,,2013-04-22 11:02:00,
2013-04-22 07:12:00,23.0,20.0,30.44,SSE,162,0.0,-999.0,89,-99.99,,,-99.99,,2013-04-22 11:12:00,
2013-04-22 07:22:00,26.0,23.0,30.40,SSE,162,0.0,-999.0,88,-99.99,,,-99.99,,2013-04-22 11:22:00,
2013-04-22 07:32:00,27.0,23.0,30.45,SSE,162,0.0,-999.0,85,-99.99,,,-99.99,,2013-04-22 11:32:00,
2013-04-22 07:42:00,27.0,23.0,30.45,SSE,162,0.0,-999.0,85,-99.99,,,-99.99,,2013-04-22 11:42:00,
2013-04-22 07:53:00,30.0,25.0,30.41,SSE,155,0.0,-999.0,82,-99.99,,,-99.99,,2013-04-22 11:53:00,
2013-04-22 08:02:00,30.0,24.0,30.44,SSE,155,0.0,-999.0,79,-99.99,,,-99.99,,2013-04-22 12:02:00,
2013-04-22 08:12:00,30.0,24.0,30.44,SSE,155,0.0,-999.0,79,-99.99,,,-99.99,,2013-04-22 12:12:00,
2013-04-22 08:22:00,31.0,25.0,30.41,SE,135,0.0,-999.0,78,-99.99,,,-99.99,,2013-04-22 12:22:00,
2013-04-22 08:32:00,32.0,26.0,30.44,SE,135,0.0,-999.0,77,-99.99,,,-99.99,,2013-04-22 12:32:00,
2013-04-22 08:42:00,32.0,26.0,30.44,SE,135,0.0,-999.0,77,-99.99,,,-99.99,,2013-04-22 12:42:00,
2013-04-22 08:52:00,33.0,26.0,30.40,SE,135,0.0,-999.0,75,-99.99,,,-99.99,,2013-04-22 12:52:00,
2013-04-22 09:01:00,33.0,26.0,30.43,SE,135,0.0,-999.0,75,-99.99,,,-99.99,,2013-04-22 13:01:00,
2013-04-22 09:11:00,33.0,26.0,30.43,SE,135,0.0,-999.0,75,-99.99,,,-99.99,,2013-04-22 13:11:00,
2013-04-22 09:22:00,35.0,25.0,30.40,SE,135,0.0,-999.0,66,-99.99,,,-99.99,,2013-04-22 13:22:00,
2013-04-22 09:32:00,36.0,25.0,30.43,ESE,113,0.0,-999.0,65,-99.99,,,-99.99,,2013-04-22 13:32:00,
2013-04-22 09:42:00,36.0,25.0,30.43,ESE,113,0.0,-999.0,65,-99.99,,,-99.99,,2013-04-22 13:42:00,
2013-04-22 09:53:00,40.0,25.0,30.38,East,99,0.0,-999.0,54,-99.99,,,-99.99,,2013-04-22 13:53:00,
2013-04-22 10:02:00,41.0,23.0,30.42,East,95,1.0,-999.0,49,-99.99,,,-99.99,,2013-04-22 14:02:00,
2013-04-22 10:12:00,41.0,23.0,30.42,East,95,1.0,-999.0,49,-99.99,,,-99.99,,2013-04-22 14:12:00,
2013-04-22 10:22:00,42.0,21.0,30.38,East,95,0.0,-999.0,42,-99.99,,,-99.99,,2013-04-22 14:22:00,
2013-04-22 10:33:00,43.0,20.0,30.41,East,93,1.0,-999.0,39,-99.99,,,-99.99,,2013-04-22 14:33:00,
2013-04-22 10:42:00,43.0,20.0,30.41,East,93,1.0,-999.0,39,-99.99,,,-99.99,,2013-04-22 14:42:00,
2013-04-22 10:52:00,45.0,20.0,30.38,ESE,109,3.0,-999.0,36,-99.99,,,-99.99,,2013-04-22 14:52:00,
2013-04-22 11:02:00,45.0,18.0,30.41,NW,316,2.0,-999.0,33,-99.99,,,-99.99,,2013-04-22 15:02:00,
2013-04-22 11:12:00,45.0,18.0,30.41,NW,316,2.0,-999.0,33,-99.99,,,-99.99,,2013-04-22 15:12:00,
2013-04-22 11:22:00,47.0,20.0,30.37,ENE,69,1.0,-999.0,34,-99.99,,,-99.99,,2013-04-22 15:22:00,
2013-04-22 11:33:00,46.0,18.0,30.41,East,94,2.0,-999.0,32,-99.99,,,-99.99,,2013-04-22 15:33:00,
2013-04-22 11:43:00,46.0,18.0,30.41,East,94,2.0,-999.0,32,-99.99,,,-99.99,,2013-04-22 15:43:00,
2013-04-22 11:53:00,48.0,20.0,30.37,East,83,2.0,-999.0,32,-99.99,,,-99.99,,2013-04-22 15:53:00,
2013-04-22 12:03:00,48.0,17.0,30.40,NE,48,4.0,-999.0,29,-99.99,,,-99.99,,2013-04-22 16:03:00,
2013-04-22 12:12:00,48.0,17.0,30.40,NE,48,4.0,-999.0,29,-99.99,,,-99.99,,2013-04-22 16:12:00,
2013-04-22 12:23:00,50.0,16.0,30.36,East,86,3.0,-999.0,25,-99.99,,,-99.99,,2013-04-22 16:23:00,
2013-04-22 12:33:00,49.0,16.0,30.39,NNE,30,4.0,-999.0,27,-99.99,,,-99.99,,2013-04-22 16:33:00,
2013-04-22 12:42:00,49.0,16.0,30.39,NNE,30,4.0,-999.0,27,-99.99,,,-99.99,,2013-04-22 16:42:00,
2013-04-22 12:52:00,50.0,16.0,30.35,NE,51,5.0,-999.0,25,-99.99,,,-99.99,,2013-04-22 16:52:00,
2013-04-22 13:02:00,50.0,17.0,30.37,ENE,63,4.0,-999.0,27,-99.99,,,-99.99,,2013-04-22 17:02:00,
2013-04-22 13:12:00,50.0,17.0,30.37,ENE,63,4.0,-999.0,27,-99.99,,,-99.99,,2013-04-22 17:12:00,
2013-04-22 13:22:00,52.0,19.0,30.33,NE,56,2.0,-999.0,27,-99.99,,,-99.99,,2013-04-22 17:22:00,
2013-04-22 13:32:00,52.0,14.0,30.35,ESE,114,3.0,-999.0,22,-99.99,,,-99.99,,2013-04-22 17:32:00,
2013-04-22 13:42:00,52.0,14.0,30.35,ESE,114,3.0,-999.0,22,-99.99,,,-99.99,,2013-04-22 17:42:00,
2013-04-22 13:52:00,52.0,18.0,30.34,ESE,105,3.0,-999.0,26,-99.99,,,-99.99,,2013-04-22 17:52:00,
2013-04-22 14:02:00,52.0,18.0,30.34,ESE,105,3.0,-999.0,26,-99.99,,,-99.99,,2013-04-22 18:02:00,
2013-04-22 14:12:00,52.0,18.0,30.34,ESE,105,3.0,-999.0,26,-99.99,,,-99.99,,2013-04-22 18:12:00,
2013-04-22 14:22:00,53.0,13.0,30.30,SE,126,3.0,-999.0,20,-99.99,,,-99.99,,2013-04-22 18:22:00,
2013-04-22 14:32:00,53.0,14.0,30.32,NE,41,2.0,-999.0,21,-99.99,,,-99.99,,2013-04-22 18:32:00,
2013-04-22 14:42:00,53.0,14.0,30.32,NE,41,2.0,-999.0,21,-99.99,,,-99.99,,2013-04-22 18:42:00,
2013-04-22 14:52:00,54.0,17.0,30.29,ESE,107,4.0,-999.0,23,-99.99,,,-99.99,,2013-04-22 18:52:00,
2013-04-22 15:01:00,53.0,16.0,30.31,East,99,4.0,-999.0,23,-99.99,,,-99.99,,2013-04-22 19:01:00,
2013-04-22 15:12:00,53.0,16.0,30.31,East,99,4.0,-999.0,23,-99.99,,,-99.99,,2013-04-22 19:12:00,
2013-04-22 15:22:00,55.0,18.0,30.27,NNW,341,3.0,-999.0,23,-99.99,,,-99.99,,2013-04-22 19:22:00,
2013-04-22 15:32:00,54.0,16.0,30.29,NNE,17,4.0,-999.0,22,-99.99,,,-99.99,,2013-04-22 19:32:00,
2013-04-22 15:42:00,54.0,16.0,30.29,NNE,17,4.0,-999.0,22,-99.99,,,-99.99,,2013-04-22 19:42:00,
2013-04-22 15:53:00,55.0,18.0,30.26,East,88,5.0,-999.0,23,-99.99,,,-99.99,,2013-04-22 19:53:00,
2013-04-22 16:02:00,55.0,20.0,30.29,ESE,116,4.0,-999.0,25,-99.99,,,-99.99,,2013-04-22 20:02:00,
2013-04-22 16:11:00,55.0,20.0,30.29,ESE,116,4.0,-999.0,25,-99.99,,,-99.99,,2013-04-22 20:11:00,
2013-04-22 16:22:00,55.0,19.0,30.24,ENE,70,4.0,-999.0,24,-99.99,,,-99.99,,2013-04-22 20:22:00,
2013-04-22 16:32:00,55.0,22.0,30.27,East,97,3.0,-999.0,27,-99.99,,,-99.99,,2013-04-22 20:32:00,
2013-04-22 16:42:00,55.0,22.0,30.27,East,97,3.0,-999.0,27,-99.99,,,-99.99,,2013-04-22 20:42:00,
2013-04-22 16:52:00,55.0,18.0,30.24,ENE,57,4.0,-999.0,23,-99.99,,,-99.99,,2013-04-22 20:52:00,
2013-04-22 17:02:00,54.0,19.0,30.27,ENE,75,4.0,-999.0,25,-99.99,,,-99.99,,2013-04-22 21:02:00,
2013-04-22 17:12:00,54.0,19.0,30.27,ENE,75,4.0,-999.0,25,-99.99,,,-99.99,,2013-04-22 21:12:00,
2013-04-22 17:22:00,55.0,20.0,30.23,East,97,5.0,-999.0,25,-99.99,,,-99.99,,2013-04-22 21:22:00,
2013-04-22 17:33:00,54.0,19.0,30.26,East,99,5.0,-999.0,25,-99.99,,,-99.99,,2013-04-22 21:33:00,
2013-04-22 17:43:00,54.0,19.0,30.26,East,99,5.0,-999.0,25,-99.99,,,-99.99,,2013-04-22 21:43:00,
2013-04-22 17:53:00,54.0,22.0,30.23,ENE,74,5.0,-999.0,28,-99.99,,,-99.99,,2013-04-22 21:53:00,
2013-04-22 18:03:00,53.0,21.0,30.26,ENE,60,3.0,-999.0,28,-99.99,,,-99.99,,2013-04-22 22:03:00,
2013-04-22 18:12:00,53.0,21.0,30.26,ENE,60,3.0,-999.0,28,-99.99,,,-99.99,,2013-04-22 22:12:00,
2013-04-22 18:22:00,52.0,16.0,30.23,East,93,5.0,-999.0,24,-99.99,,,-99.99,,2013-04-22 22:22:00,
2013-04-22 18:33:00,51.0,17.0,30.26,East,92,6.0,-999.0,26,-99.99,,,-99.99,,2013-04-22 22:33:00,
2013-04-22 18:42:00,51.0,17.0,30.26,East,92,6.0,-999.0,26,-99.99,,,-99.99,,2013-04-22 22:42:00,
2013-04-22 18:52:00,51.0,17.0,30.23,East,97,4.0,-999.0,26,-99.99,,,-99.99,,2013-04-22 22:52:00,
2013-04-22 19:02:00,50.0,16.0,30.26,East,96,3.0,-999.0,26,-99.99,,,-99.99,,2013-04-22 23:02:00,
2013-04-22 19:11:00,50.0,16.0,30.26,East,96,3.0,-999.0,26,-99.99,,,-99.99,,2013-04-22 23:11:00,
2013-04-22 19:22:00,49.0,16.0,30.24,East,87,3.0,-999.0,26,-99.99,,,-99.99,,2013-04-22 23:22:00,
2013-04-22 19:33:00,49.0,17.0,30.26,East,87,2.0,-999.0,28,-99.99,,,-99.99,,2013-04-22 23:33:00,
2013-04-22 19:42:00,49.0,17.0,30.26,East,87,2.0,-999.0,28,-99.99,,,-99.99,,2013-04-22 23:42:00,
2013-04-22 19:52:00,47.0,16.0,30.24,East,90,1.0,-999.0,28,-99.99,,,-99.99,,2013-04-22 23:52:00,
2013-04-22 20:02:00,47.0,16.0,30.27,East,92,1.0,-999.0,28,-99.99,,,-99.99,,2013-04-23 00:02:00,
2013-04-22 20:12:00,47.0,16.0,30.27,East,92,1.0,-999.0,28,-99.99,,,-99.99,,2013-04-23 00:12:00,
2013-04-22 20:22:00,46.0,16.0,30.25,ENE,66,0.0,-999.0,30,-99.99,,,-99.99,,2013-04-23 00:22:00,
2013-04-22 20:32:00,44.0,15.0,30.28,ENE,66,0.0,-999.0,30,-99.99,,,-99.99,,2013-04-23 00:32:00,
2013-04-22 20:42:00,44.0,15.0,30.28,ENE,66,0.0,-999.0,30,-99.99,,,-99.99,,2013-04-23 00:42:00,
2013-04-22 20:52:00,42.0,14.0,30.26,SSE,166,0.0,-999.0,32,-99.99,,,-99.99,,2013-04-23 00:52:00,
2013-04-22 21:01:00,42.0,14.0,30.29,SW,233,0.0,-999.0,32,-99.99,,,-99.99,,2013-04-23 01:01:00,
2013-04-22 21:11:00,42.0,14.0,30.29,SW,233,0.0,-999.0,32,-99.99,,,-99.99,,2013-04-23 01:11:00,
2013-04-22 21:22:00,42.0,14.0,30.27,NE,41,1.0,-999.0,31,-99.99,,,-99.99,,2013-04-23 01:22:00,
2013-04-22 21:32:00,41.0,15.0,30.29,West,275,0.0,-999.0,34,-99.99,,,-99.99,,2013-04-23 01:32:00,
2013-04-22 21:42:00,41.0,15.0,30.29,West,275,0.0,-999.0,34,-99.99,,,-99.99,,2013-04-23 01:42:00,
2013-04-22 21:52:00,41.0,16.0,30.27,WNW,298,0.0,-999.0,36,-99.99,,,-99.99,,2013-04-23 01:52:00,
2013-04-22 22:02:00,40.0,16.0,30.29,West,279,0.0,-999.0,37,-99.99,,,-99.99,,2013-04-23 02:02:00,
2013-04-22 22:12:00,40.0,16.0,30.29,West,279,0.0,-999.0,37,-99.99,,,-99.99,,2013-04-23 02:12:00,
2013-04-22 22:22:00,39.0,18.0,30.27,West,275,0.0,-999.0,42,-99.99,,,-99.99,,2013-04-23 02:22:00,
2013-04-22 22:32:00,38.0,18.0,30.29,WSW,251,0.0,-999.0,44,-99.99,,,-99.99,,2013-04-23 02:32:00,
2013-04-22 22:42:00,38.0,18.0,30.29,WSW,251,0.0,-999.0,44,-99.99,,,-99.99,,2013-04-23 02:42:00,
2013-04-22 22:52:00,36.0,20.0,30.27,WSW,238,1.0,-999.0,51,-99.99,,,-99.99,,2013-04-23 02:52:00,
2013-04-22 23:01:00,35.0,19.0,30.29,SW,233,1.0,-999.0,52,-99.99,,,-99.99,,2013-04-23 03:01:00,
2013-04-22 23:11:00,35.0,19.0,30.29,SW,233,1.0,-999.0,52,-99.99,,,-99.99,,2013-04-23 03:11:00,
2013-04-22 23:22:00,33.0,20.0,30.26,SW,233,2.0,-999.0,58,-99.99,,,-99.99,,2013-04-23 03:22:00,
2013-04-22 23:33:00,32.0,19.0,30.28,SW,233,1.0,-999.0,59,-99.99,,,-99.99,,2013-04-23 03:33:00,
2013-04-22 23:43:00,32.0,19.0,30.28,SW,233,1.0,-999.0,59,-99.99,,,-99.99,,2013-04-23 03:43:00,
2013-04-22 23:53:00,31.0,21.0,30.25,SW,224,2.0,-999.0,65,-99.99,,,-99.99,,2013-04-23 03:53:00,